Location: Archemont
(49.1579°N, 1.7598°E)
Time: 14:58:08
(UTC+00:00)

Resurs 01 Rocket - Pass Details

Date: 03 February 2023
Orbit: 632 x 643 km, 97.9° (Epoch: 30 March)

Event Time Altitude Azimuth Distance (km) Brightness Sun altitude
Exits shadow 19:00:00 10° 15° (NNE) 2,048 4.1 -21.0°
Drops below altitude 10° 19:00:01 10° 15° (NNE) 2,051 4.1 -21.0°
Sets 19:02:42 0° 358° (N) 2,967 5.1 -21.4°
